Weather in Zheleznitsa

Russia / Tula Oblast     53°36′47″N   36°18′30″E
temp.,
°C
wind,
m/s
gust,
m/s
humid.,
%
clouds,
%
prec.,
mm/h
press.,
hPa
HPBL,
m
17 may, mon
mon1700:00+14e337811 0.0 101230
03:00+13ene378494 0.0 1012116
06:00+15ene51392100 1.0 1010306
09:00+20e6108191 1.1 1009487
12:00+24ese710605 0.0 1009849
15:00+25ese7126229 0.0 10071600
18:00+22ese714685 0.0 1007743
21:00+19ese7177297 0.0 1006488
18 may, tue
tue1800:00+17se514775 0.0 1007350
03:00+15se4108763 0.0 1006198
06:00+15ese479121 0.3 1006168
09:00+20se587480 0.3 1006437
12:00+23se7116214 0.0 10061032
15:00+23se6116388 0.0 10051313
18:00+21sse5106993 0.0 1004611
21:00+16sse4109285 0.9 1006341
19 may, wed
wed1900:00+15se6139285 1.1 1006428
03:00+13se489782 1.1 1006188
06:00+14se41095100 0.0 1006338
09:00+17se588466 1.1 1006567
12:00+20sse576799 0.4 10061549
15:00+21sse566677 0.8 10061205
18:00+20se367492 0.6 1006902
21:00+15sse2288100 0.9 100618
20 may, thu
thu2000:00+14ese119130 0.0 100610
03:00+12sse2294100 0.1 100416
06:00+13se3597100 0.4 1004200
09:00+14ssw5892100 1.0 1004556
12:00+17s567394 0.4 10041190
15:00+14sse698499 1.4 1005462
18:00+16s698293 1.3 1004827
21:00+11ssw6119299 2.0 1005561
21 may, fri
fri2100:00+10s7129094 0.1 1005773
03:00+8s81592100 0.1 1005700
06:00+9ssw81490100 0.0 1006796
09:00+10ssw81584100 0.1 10071311
12:00+10sw91484100 0.3 10081306
15:00+10sw81383100 0.3 10101082
18:00+8wsw71285100 0.1 10121163
21:00+9w61281100 0.1 1015892